TimeAKDT,TemperatureF,Dew PointF,Humidity,Sea Level PressureIn,VisibilityMPH,Wind Direction,Wind SpeedMPH,Gust SpeedMPH,PrecipitationIn,Events,Conditions,WindDirDegrees,DateUTC
12:53 AM,30.0,27.0,88,30.16,10.0,Calm,Calm,-,N/A,,Clear,0,2013-03-28 08:53:00
1:53 AM,30.0,26.1,85,30.16,10.0,North,5.8,-,N/A,,Clear,10,2013-03-28 09:53:00
2:53 AM,32.0,25.0,75,30.16,10.0,NNE,3.5,-,N/A,,Clear,20,2013-03-28 10:53:00
3:53 AM,30.9,25.0,79,30.15,10.0,NNW,4.6,-,N/A,,Clear,340,2013-03-28 11:53:00
4:53 AM,32.0,24.1,73,30.17,10.0,NNW,4.6,-,N/A,,Clear,340,2013-03-28 12:53:00
5:53 AM,28.0,24.1,85,30.17,10.0,Calm,Calm,-,N/A,,Clear,0,2013-03-28 13:53:00
6:53 AM,28.0,25.0,88,30.18,10.0,Calm,Calm,-,N/A,,Clear,0,2013-03-28 14:53:00
7:53 AM,28.9,26.1,89,30.18,10.0,Calm,Calm,-,N/A,,Clear,0,2013-03-28 15:53:00
9:53 AM,39.0,25.0,57,30.19,10.0,NNW,3.5,-,N/A,,Clear,340,2013-03-28 17:53:00
10:53 AM,41.0,21.9,47,30.19,10.0,Calm,Calm,-,N/A,,Clear,0,2013-03-28 18:53:00
11:53 AM,43.0,21.9,43,30.19,10.0,Variable,5.8,-,N/A,,Clear,0,2013-03-28 19:53:00
12:53 PM,45.0,25.0,46,30.18,10.0,WSW,5.8,-,N/A,,Clear,240,2013-03-28 20:53:00
3:53 PM,46.0,28.0,50,30.17,10.0,WSW,10.4,-,N/A,,Clear,250,2013-03-28 23:53:00
4:53 PM,44.1,28.9,55,30.17,10.0,WSW,9.2,-,N/A,,Clear,250,2013-03-29 00:53:00
5:53 PM,43.0,30.0,60,30.18,10.0,SW,5.8,-,N/A,,Clear,220,2013-03-29 01:53:00
6:53 PM,39.9,30.0,68,30.18,10.0,South,4.6,-,N/A,,Clear,180,2013-03-29 02:53:00
7:53 PM,36.0,28.9,76,30.20,10.0,South,4.6,-,N/A,,Clear,170,2013-03-29 03:53:00
8:53 PM,35.1,28.0,76,30.20,10.0,Variable,3.5,-,N/A,,Clear,0,2013-03-29 04:53:00
9:53 PM,33.1,27.0,78,30.21,10.0,Calm,Calm,-,N/A,,Clear,0,2013-03-29 05:53:00
10:53 PM,32.0,28.0,85,30.21,10.0,Calm,Calm,-,N/A,,Clear,0,2013-03-29 06:53:00
11:53 PM,28.9,27.0,92,30.22,10.0,Calm,Calm,-,N/A,,Clear,0,2013-03-29 07:53:00